Location: Vihti�l�
(61.3833°N, 23.0667°E)
Time: 04:42:32
(UTC+00:00)

Cosmos 2344 - Pass Details

Date: 29 November 2020
Orbit: 1245 x 2998 km, 63.3° (Epoch: 19 January)

Event Time Altitude Azimuth Distance (km) Brightness Sun altitude
Exits shadow 03:52:52 32° 282° (WNW) 2,508 4.5 -21.6°
Maximum altitude 03:56:55 48° 231° (SW) 2,200 4.5 -21.1°
Drops below altitude 10° 04:08:09 10° 162° (SSE) 4,784 6.9 -19.7°
Sets 04:12:21 0° 158° (SSE) 6,036 7.5 -19.2°
